This is the latest recevied weather packets stored in our database for station/object SV4JYD-14. If no packets are shown the sender has not sent any weather packets the latest 10 day(s).
| Time | Temp. | Humidity | Pressure | Rain* | Wind** | Luminosity | Snow |
|---|---|---|---|---|---|---|---|
| 1777356381 | 15.56° C | 59% | 1018 hPa | 0 mm | - | - | - |
| 1777355480 | 15° C | 60% | 1017 hPa | 0 mm | - | - | - |
| 1777354579 | 14.44° C | 61% | 1017 hPa | 0 mm | - | - | - |
| 1777353679 | 14.44° C | 64% | 1018 hPa | 0 mm | - | - | - |
| 1777352779 | 13.89° C | 67% | 1018 hPa | 0 mm | - | - | - |
| 1777351879 | 13.89° C | 71% | 1017 hPa | 0 mm | - | - | - |
| 1777350978 | 13.33° C | 72% | 1017 hPa | 0 mm | - | - | - |
| 1777350078 | 12.78° C | 68% | 1017 hPa | 0 mm | - | - | - |
| 1777349178 | 12.22° C | 66% | 1017 hPa | 0 mm | - | - | - |
| 1777348278 | 12.22° C | 67% | 1017 hPa | 0 mm | - | - | - |
| 1777347377 | 11.67° C | 70% | 1016 hPa | 0 mm | - | - | - |
| 1777346477 | 11.67° C | 73% | 1017 hPa | 0 mm | - | - | - |
| 1777345576 | 11.67° C | 76% | 1017 hPa | 0 mm | - | - | - |
| 1777344676 | 11.11° C | 76% | 1016 hPa | 0 mm | - | - | - |
| 1777343776 | 11.67° C | 74% | 1016 hPa | 0 mm | - | - | - |
| 1777342875 | 11.67° C | 72% | 1017 hPa | 0 mm | - | - | - |
| 1777341974 | 12.22° C | 71% | 1017 hPa | 0 mm | - | - | - |
| 1777341074 | 12.78° C | 70% | 1016 hPa | 0 mm | - | - | - |
| 1777340175 | 12.78° C | 70% | 1016 hPa | 0 mm | - | - | - |
| 1777339273 | 12.78° C | 69% | 1017 hPa | 0 mm | - | - | - |
| 1777338372 | 12.78° C | 69% | 1018 hPa | 0 mm | - | - | - |
| 1777337472 | 12.78° C | 69% | 1017 hPa | 0 mm | - | - | - |
| 1777336570 | 12.78° C | 69% | 1017 hPa | 0 mm | - | - | - |
| 1777335669 | 12.78° C | 68% | 1017 hPa | 0 mm | - | - | - |
| 1777334769 | 13.33° C | 67% | 1017 hPa | 0 mm | - | - | - |
* Rain latest hour (hover to see other rain measurements)
** Current wind speed in m/s (hover to see current wind gust speed)